Galveston, TX

5:31 PM CDT on March 25, 2017 (GMT -0500)
Scholes International At Galveston

Weather History for KGLS - October, 2012

Change the Weather History Date:

Saturday, October 6, 2012

  Actual Average Record
Temperature  
Mean Temperature 76 °F 77 °F  
Max Temperature 84 °F 83 °F 91 °F (1897)
Min Temperature 67 °F 71 °F 57 °F (1964)
Degree Days  
Heating Degree Days 0 0  
Month to date heating degree days 0 0  
Since 1 July heating degree days 0 0  
Cooling Degree Days 11 12  
Month to date cooling degree days 66 76  
Year to date cooling degree days 3512 2969  
Growing Degree Days 26 (Base 50)    
Moisture  
Dew Point 69 °F    
Average Humidity 78    
Maximum Humidity 90    
Minimum Humidity 65    
Precipitation  
Precipitation 0.00 in 0.17 in 6.60 in (1910)
Month to date precipitation 0.01 1.14  
Year to date precipitation 42.98 38.35  
Snow  
Snow 0.00 in - 0.00 in (2002)
Month to date snowfall 0.0  
Since 1 July snowfall 0.0  
Since 1 September snowfall 0.0  
Snow Depth 0.00 in    
Sea Level Pressure  
Sea Level Pressure 30.01 in    
Wind  
Wind Speed 8 mph (East)    
Max Wind Speed 23 mph    
Max Gust Speed 28 mph    
Visibility 10 miles    
Events      
T = Trace of Precipitation, MM = Missing Value Source: NWS Daily Summary

Daily Weather History Graph

Daily Weather History Graph

Search for Another Location

Airport or City:

Trip Planner

Search our weather history database for the weather conditions in past years. The results will help you decide how hot, cold, wet, or windy it might be!

Date:

Astronomy

Oct. 06, 2012 Rise Set
Actual Time 7:15 AM CDT 6:58 PM CDT
Civil Twilight 6:51 AM CDT 7:22 PM CDT
Nautical Twilight 6:24 AM CDT 7:49 PM CDT
Astronomical Twilight 5:56 AM CDT 8:17 PM CDT
Moon 11:34 PM CDT (10/6) 12:50 PM CDT (10/6)
Length of Visible Light 12h 30m
Length of Day
11h 42m
Waning Gibbous, 65% of the Moon is Illuminated
Oct 6
Waning Gibbous
Oct 8
Last Quarter
Oct 15
New
Oct 21
First Quarter
Oct 29
Full

Hourly Weather History & Observations

Time (CDT) Temp. Heat Index Dew Point Humidity Pressure Visibility Wind Dir Wind Speed Gust Speed Precip Events Conditions
12:52 AM 75.0 °F - 69.1 °F 82% 30.01 in 10.0 mi SSE 4.6 mph - N/A   Clear
1:52 AM 75.0 °F - 69.1 °F 82% 30.01 in 10.0 mi South 3.5 mph - N/A   Clear
2:52 AM 75.0 °F - 69.1 °F 82% 30.01 in 10.0 mi SSE 4.6 mph - N/A   Clear
3:52 AM 75.0 °F - 69.1 °F 82% 29.99 in 10.0 mi Calm Calm - N/A   Clear
4:52 AM 75.9 °F - 69.1 °F 79% 29.99 in 10.0 mi Calm Calm - N/A   Partly Cloudy
5:52 AM 75.0 °F - 68.0 °F 79% 30.00 in 10.0 mi Calm Calm - N/A   Partly Cloudy
6:52 AM 75.2 °F - 69.8 °F 83% 30.01 in 10.0 mi Calm Calm - N/A   Scattered Clouds
7:52 AM 75.9 °F - 71.1 °F 85% 30.02 in 10.0 mi Calm Calm - N/A   Scattered Clouds
8:52 AM 78.8 °F - 71.6 °F 78% 30.03 in 10.0 mi ESE 5.8 mph - N/A   Scattered Clouds
9:52 AM 81.0 °F 84.9 °F 71.1 °F 72% 30.04 in 10.0 mi SSE 4.6 mph - N/A   Scattered Clouds
10:52 AM 82.0 °F 86.3 °F 71.1 °F 69% 30.04 in 10.0 mi ESE 6.9 mph - N/A   Scattered Clouds
11:52 AM 80.1 °F 84.2 °F 73.0 °F 79% 30.04 in 10.0 mi North 9.2 mph - N/A   Scattered Clouds
12:52 PM 82.9 °F 86.5 °F 69.1 °F 63% 30.02 in 10.0 mi East 6.9 mph - N/A   Scattered Clouds
1:52 PM 82.9 °F 87.5 °F 71.1 °F 67% 29.99 in 10.0 mi ESE 10.4 mph - N/A   Clear
2:52 PM 82.0 °F 85.9 °F 70.0 °F 67% 29.97 in 10.0 mi East 9.2 mph - N/A   Partly Cloudy
3:52 PM 82.0 °F 86.3 °F 71.1 °F 69% 29.96 in 10.0 mi SE 10.4 mph - N/A   Clear
4:52 PM 81.0 °F 84.1 °F 69.1 °F 67% 29.96 in 10.0 mi ESE 8.1 mph - N/A   Clear
5:52 PM 80.1 °F 82.7 °F 68.0 °F 67% 29.96 in 10.0 mi SE 6.9 mph - N/A   Clear
6:52 PM 78.1 °F - 68.0 °F 71% 29.96 in 10.0 mi ESE 6.9 mph - N/A   Clear
7:52 PM 77.0 °F - 68.0 °F 74% 29.97 in 10.0 mi ESE 6.9 mph - N/A   Clear
8:52 PM 77.0 °F - 69.1 °F 76% 29.99 in 10.0 mi ESE 6.9 mph - N/A   Clear
9:47 PM 73.4 °F - 68.0 °F 83% 30.02 in 10.0 mi NNE 17.3 mph 26.5 mph N/A   Mostly Cloudy
9:52 PM 73.0 °F - 69.1 °F 87% 30.02 in 10.0 mi NNE 19.6 mph - N/A   Mostly Cloudy
10:38 PM 71.6 °F - 66.2 °F 83% 30.03 in 10.0 mi North 18.4 mph - N/A   Mostly Cloudy
10:52 PM 70.0 °F - 66.0 °F 87% 30.03 in 10.0 mi NNE 17.3 mph - N/A   Mostly Cloudy
11:03 PM 69.8 °F - 66.2 °F 88% 30.04 in 10.0 mi NNE 18.4 mph - N/A   Scattered Clouds
11:26 PM 69.8 °F - 66.2 °F 88% 30.04 in 10.0 mi NNE 19.6 mph - N/A   Mostly Cloudy
11:52 PM 69.1 °F - 64.9 °F 87% 30.04 in 10.0 mi North 19.6 mph - N/A   Overcast